Weather History for KIND - July, 2014

Change the Weather History Date:

Tuesday, July 22, 2014

  Actual Average Record
Temperature  
Mean Temperature 78 °F 75 °F  
Max Temperature 88 °F 85 °F 106 °F (1901)
Min Temperature 67 °F 66 °F 49 °F (1947)
Degree Days  
Heating Degree Days 0 0  
Month to date heating degree days 3 0  
Since 1 June heating degree days 5 16  
Since 1 July heating degree days 3 0  
Cooling Degree Days 13 10  
Month to date cooling degree days 137 235  
Year to date cooling degree days 479 545  
Since 1 June cooling degree days 375 461  
Growing Degree Days 27 (Base 50)    
Moisture  
Dew Point 65 °F    
Average Humidity 63    
Maximum Humidity 79    
Minimum Humidity 46    
Precipitation  
Precipitation 0.00 in 0.14 in 1.82 in (2004)
Month to date precipitation 0.94 3.39  
Year to date precipitation 25.41 25.04  
Snow  
Snow 0.00 in 0.00 in 0.00 in ()
Month to date snowfall 0.0 0.0  
Since 1 June snowfall 0.0 0.0  
Since 1 July snowfall 0.0 0.0  
Snow Depth 0.00 in    
Sea Level Pressure  
Sea Level Pressure 30.05 in    
Wind  
Wind Speed 7 mph (SW)    
Max Wind Speed 17 mph    
Max Gust Speed 22 mph    
Visibility 9 miles    
Events Fog    
T = Trace of Precipitation, MM = Missing Value Source: NWS Daily Summary

Daily Weather History Graph

Daily Weather History Graph

Search for Another Location

Airport or City:

Trip Planner

Search our weather history database for the weather conditions in past years. The results will help you decide how hot, cold, wet, or windy it might be!

Date:

Astronomy

Jul. 22, 2014 Rise Set
Actual Time 6:35 AM EDT 9:07 PM EDT
Civil Twilight 6:04 AM EDT 9:38 PM EDT
Nautical Twilight 5:25 AM EDT 10:16 PM EDT
Astronomical Twilight 4:42 AM EDT 10:59 PM EDT
Moon 3:08 AM EDT (7/22) 5:44 PM EDT (7/22)
Length of Visible Light 15h 33m
Length of Day
14h 31m
Waning Crescent, 16% of the Moon is Illuminated
Jul 22
Waning Crescent
Jul 26
New
Aug 3
First Quarter
Aug 10
Full
Aug 17
Last Quarter

Hourly Weather History & Observations

Time (EDT) Temp. Heat Index Dew Point Humidity Pressure Visibility Wind Dir Wind Speed Gust Speed Precip Events Conditions
12:54 AM 73.0 °F - 63.0 °F 71% 30.08 in 10.0 mi Calm Calm - N/A   Clear
1:54 AM 72.0 °F - 64.0 °F 76% 30.07 in 8.0 mi SE 3.5 mph - N/A   Clear
2:54 AM 72.0 °F - 63.0 °F 73% 30.07 in 9.0 mi Calm Calm - N/A   Clear
3:54 AM 71.1 °F - 64.0 °F 78% 30.07 in 8.0 mi Calm Calm - N/A   Clear
4:54 AM 70.0 °F - 62.1 °F 76% 30.07 in 10.0 mi Calm Calm - N/A   Clear
5:54 AM 69.1 °F - 62.1 °F 78% 30.09 in 8.0 mi Calm Calm - N/A   Clear
6:54 AM 69.1 °F - 63.0 °F 81% 30.09 in 5.0 mi Calm Calm - N/A Fog Shallow Fog
7:54 AM 72.0 °F - 64.0 °F 76% 30.09 in 6.0 mi Calm Calm - N/A   Haze
8:54 AM 75.0 °F - 64.9 °F 71% 30.10 in 7.0 mi SE 5.8 mph - N/A   Clear
9:54 AM 78.1 °F - 66.0 °F 66% 30.10 in 8.0 mi SW 3.5 mph - N/A   Clear
10:54 AM 81.0 °F 83.0 °F 66.0 °F 60% 30.09 in 9.0 mi SSW 5.8 mph - N/A   Clear
11:54 AM 82.9 °F 84.6 °F 64.9 °F 54% 30.08 in 10.0 mi SW 9.2 mph - N/A   Partly Cloudy
1:54 PM 84.9 °F 86.1 °F 64.0 °F 49% 30.05 in 10.0 mi SW 9.2 mph - N/A   Partly Cloudy
2:54 PM 87.1 °F 88.9 °F 64.9 °F 48% 30.04 in 10.0 mi SSW 13.8 mph - N/A   Partly Cloudy
3:54 PM 87.1 °F 88.9 °F 64.9 °F 48% 30.04 in 10.0 mi SW 11.5 mph 18.4 mph N/A   Partly Cloudy
4:54 PM 87.1 °F 89.2 °F 66.0 °F 49% 30.03 in 10.0 mi WSW 17.3 mph 20.7 mph N/A   Scattered Clouds
5:54 PM 86.0 °F 88.8 °F 66.9 °F 53% 30.01 in 10.0 mi WSW 12.7 mph - N/A   Scattered Clouds
6:54 PM 84.0 °F 86.5 °F 66.9 °F 56% 30.00 in 10.0 mi SSW 11.5 mph - N/A   Scattered Clouds
7:54 PM 82.9 °F 85.0 °F 66.0 °F 56% 30.01 in 10.0 mi SSW 11.5 mph - N/A   Scattered Clouds
8:54 PM 81.0 °F 83.3 °F 66.9 °F 62% 30.02 in 10.0 mi WSW 9.2 mph - N/A   Scattered Clouds
9:54 PM 77.0 °F - 68.0 °F 74% 30.04 in 10.0 mi SW 6.9 mph - N/A   Scattered Clouds
10:54 PM 78.1 °F - 68.0 °F 71% 30.00 in 10.0 mi SSW 8.1 mph - N/A   Mostly Cloudy
11:54 PM 75.9 °F - 68.0 °F 76% 29.99 in 10.0 mi SW 6.9 mph - N/A   Scattered Clouds